Find Starlink 33830

NORAD ID: 63587 Int'l Des: 2025-076 Owner: SPXS Country: US Constellation: starlink operational
LEOCIRCULAR

当前视图

正在加载3D地球...

About Starlink 33830

Starlink 33830 (NORAD 63587) is a starlink constellation satellite (v2 mini) launched Apr 14, 2025 by SPXS of US. It operates in LEO, CIRCULAR orbit with a mass of 575.00 kg.

关于 Starlink 33830

正在加载描述...

即将过境

Passes for default location (London). Set your location on the main map for personalized predictions.

高度历史

Loading altitude history...

两行轨道根数

1 63587U 25076U 26171.17108406 .00014430 00000-0 53234-3 0 9995
2 63587 42.9972 102.9265 0000944 256.3246 103.7500 15.27612291 67504
Epoch: Jun 20, 2026 • Age: 24 hours

当前状态

高度 483.5 km
速度 7.63 km/s
星下点 -5.30°S, 128.2°E
发射日期 Apr 14, 2025
运行时间 1.1 years
类型 internet

技术详情

分类 Payload
质量 575.00 kg
干质量 530.00 kg
总质量 575.00 kg
长度 0.30 m
直径 4.10 m
跨度 29.00 m
形状 Box + pan
制造商 SPXS
平台类型 Starlink V2MO
阶段状态 In Orbit
所有者/国家 SPXS/US

Most Searched